Regional Weather Roundup
Issued by NWS

Home | Current Version | Previous Version | Graphics & Text | Print | Product List | Glossary On
Versions: 1 2 3 4 5 6 7 8 9 10 11 12 13 14 15 16 17 18 19 20 21 22 23 24 25 26 27 28 29 30 31 32 33 34 35 36 37 38 39 40 41 42 43 44 45 46 47 48 49 50
000
ASUS43 KLSX 010757
RWRMO

WEATHER SUMMARY FOR MISSOURI
NATIONAL WEATHER SERVICE SPRINGFIELD MO
200 AM CST WED MAR 01 2017

NOTE: "FAIR" INDICATES FEW OR NO CLOUDS BELOW 12,000 FEET WITH NO
       SIGNIFICANT WEATHER AND/OR OBSTRUCTIONS TO VISIBILITY.
       CURRENT SKY AND/OR WEATHER CONDITIONS ARE NOT AVAILABLE FOR
       CHILLICOTHE AND FARMINGTON.

MOZ001>031-035>038-043-044-053-054-010900-
...NORTHERN AND WESTERN MISSOURI...

CITY           SKY/WX    TMP DP  RH WIND       PRES   REMARKS
KANSAS CTY INT CLOUDY    41  36  82 NW13      29.76S
KANSAS C DTWN  CLOUDY    43  37  79 NW13      29.76R
LEE`S SUMMIT   CLEAR     42  37  82 N15G24    29.76R
ST JOSEPH      CLOUDY    38  36  92 W10       29.80R
CHILLICOTHE      N/A     43  39  86 VRB7      29.74R

$$
MOZ066>068-077>081-088>096-101>105-010900-
...SOUTHWEST MISSOURI...

CITY           SKY/WX    TMP DP  RH WIND       PRES   REMARKS
SPRINGFIELD    CLOUDY    54  49  83 W12       29.65R
JOPLIN         MOCLDY    46  42  86 NW22G31   29.74R

$$
MOZ032>034-039>042-045>050-055>058-069>072-010900-
...CENTRAL MISSOURI...

CITY           SKY/WX    TMP DP  RH WIND       PRES   REMARKS
COLUMBIA       LGT RAIN  50  48  93 NW16G26   29.57F
JEFFERSON CITY RAIN      52  49  89 SW8       29.64R
ROLLA          TSTM      51  49  92 NW21G36   29.62R FOG
SEDALIA        CLOUDY    47  43  86 NW16G25   29.69R

$$
MOZ051-052-059>065-010900-
...EAST CENTRAL MISSOURI...

CITY           SKY/WX    TMP DP  RH WIND       PRES   REMARKS
ST LOUIS INTL  TSTM      56  48  74 NW20G36   29.60R

$$
MOZ072>076-082>087-097>100-106>115-010900-
...SOUTH CENTRAL AND SOUTHEAST MISSOURI...

CITY           SKY/WX    TMP DP  RH WIND       PRES   REMARKS
CAPE GIRARDEAU MOCLDY    68  61  78 SW18G32   29.63F
POPLAR BLUFF   CLOUDY    69  64  84 SW21G30   29.64F
WEST PLAINS    CLOUDY    69  61  75 S18G32    29.61F

$$



USA.gov is the U.S. government's official web portal to all federal, state and local government web resources and services.